• In Czech Republic
  • List of Countries
  • For 7 days
  • Water Temperature
  • Satellite Maps
  • Weather Map
  • Weather Widgets
  • user-avatar
    Login

    Hourly Weather Ashton-under-Lyne

    Today, 24 November, Friday

    Time Temperature Precipitation Wind Pressure Humidity
    00:00 +3°C° 0 mm 3 mps 742 mmHg 75%
    01:00 +3°C° 0 mm 3 mps 742 mmHg 75%
    02:00 +3°C° 0 mm 3 mps 743 mmHg 75%
    03:00 +3°C° 0 mm 3 mps 743 mmHg 76%
    04:00 +2°C° 0 mm 3 mps 743 mmHg 76%
    05:00 +2°C° 0 mm 3 mps 744 mmHg 77%
    06:00 +2°C° 0 mm 3 mps 744 mmHg 78%
    07:00 +2°C° 0 mm 3 mps 745 mmHg 78%
    08:00 +2°C° 0 mm 3 mps 745 mmHg 77%
    09:00 +2°C° 0 mm 3 mps 745 mmHg 77%
    10:00 +3°C° 0 mm 3 mps 746 mmHg 73%
    11:00 +4°C° 0 mm 4 mps 746 mmHg 69%
    12:00 +5°C° 0 mm 4 mps 746 mmHg 65%
    13:00 +5°C° 0 mm 4 mps 746 mmHg 67%
    14:00 +5°C° 0 mm 4 mps 746 mmHg 68%
    15:00 +5°C° 0 mm 3 mps 746 mmHg 69%
    16:00 +4°C° 0.1 mm 3 mps 746 mmHg 72%
    17:00 +3°C° 0.1 mm 3 mps 746 mmHg 75%
    18:00 +3°C° 0.1 mm 3 mps 746 mmHg 77%
    19:00 +3°C° 0.2 mm 3 mps 747 mmHg 78%
    20:00 +3°C° 0.2 mm 3 mps 747 mmHg 79%
    21:00 +2°C° 0.2 mm 3 mps 747 mmHg 80%
    22:00 +2°C° 0.1 mm 3 mps 747 mmHg 79%
    23:00 +2°C° 0.1 mm 3 mps 747 mmHg 78%

    Tomorrow, 25 November, Saturday

    Time Temperature Precipitation Wind Pressure Humidity
    00:00 +2°C° 0.1 mm 3 mps 747 mmHg 77%
    01:00 +2°C° 0.1 mm 3 mps 747 mmHg 77%
    02:00 +1°C° 0.1 mm 3 mps 747 mmHg 76%
    03:00 +1°C° 0.1 mm 3 mps 747 mmHg 76%
    04:00 +1°C° 0.2 mm 3 mps 747 mmHg 76%
    05:00 +1°C° 0.2 mm 3 mps 748 mmHg 76%
    06:00 +1°C° 0.2 mm 3 mps 748 mmHg 76%
    07:00 +1°C° 0.2 mm 3 mps 748 mmHg 75%
    08:00 +1°C° 0.2 mm 3 mps 749 mmHg 75%
    09:00 +2°C° 0.2 mm 3 mps 749 mmHg 74%
    10:00 +1°C° 0.1 mm 4 mps 750 mmHg 70%
    11:00 +3°C° 0.1 mm 4 mps 750 mmHg 67%
    12:00 +3°C° 0.1 mm 5 mps 751 mmHg 63%
    13:00 +3°C° 0.1 mm 5 mps 751 mmHg 65%
    14:00 +2°C° 0.1 mm 5 mps 751 mmHg 67%
    15:00 +2°C° 0.1 mm 5 mps 751 mmHg 69%
    16:00 +2°C° 0.1 mm 5 mps 752 mmHg 70%
    17:00 +1°C° 0.1 mm 5 mps 752 mmHg 72%
    18:00 +1°C° 0.1 mm 4 mps 753 mmHg 74%
    19:00 +1°C° 0.2 mm 4 mps 753 mmHg 75%
    20:00 +1°C° 0.2 mm 4 mps 753 mmHg 76%
    21:00 +1°C° 0.2 mm 4 mps 753 mmHg 77%
    22:00 +1°C° 0.2 mm 5 mps 754 mmHg 76%
    23:00 +1°C° 0.2 mm 5 mps 754 mmHg 76%

    Day after tomorrow, 26 November, Sunday

    Time Temperature Precipitation Wind Pressure Humidity
    00:00 +1°C° 0.2 mm 5 mps 754 mmHg 75%
    01:00 +1°C° 0.2 mm 5 mps 754 mmHg 76%
    02:00 +1°C° 0.2 mm 5 mps 755 mmHg 76%
    03:00 +1°C° 0.2 mm 5 mps 755 mmHg 77%
    04:00 +1°C° 0.1 mm 5 mps 755 mmHg 77%
    05:00 +1°C° 0.1 mm 5 mps 755 mmHg 77%
    06:00 +1°C° 0.1 mm 5 mps 755 mmHg 77%
    07:00 +1°C° 0.1 mm 5 mps 756 mmHg 77%
    08:00 +1°C° 0.1 mm 5 mps 756 mmHg 77%
    09:00 +1°C° 0.1 mm 4 mps 757 mmHg 77%
    10:00 +2°C° 0.1 mm 5 mps 757 mmHg 74%
    11:00 +3°C° 0.1 mm 5 mps 757 mmHg 71%
    12:00 +5°C° 0.1 mm 5 mps 758 mmHg 68%
    13:00 +3°C° 0.1 mm 5 mps 758 mmHg 69%
    14:00 +3°C° 0.1 mm 5 mps 758 mmHg 71%
    15:00 +3°C° 0.1 mm 5 mps 758 mmHg 72%
    16:00 +4°C° 0 mm 4 mps 758 mmHg 74%
    17:00 +3°C° 0 mm 4 mps 758 mmHg 77%
    18:00 +3°C° 0 mm 4 mps 758 mmHg 79%
    19:00 +3°C° 0.3 mm 4 mps 758 mmHg 81%
    20:00 +3°C° 0.3 mm 4 mps 758 mmHg 83%
    21:00 +3°C° 0.3 mm 5 mps 757 mmHg 85%
    22:00 +3°C° 0.3 mm 5 mps 757 mmHg 85%
    23:00 +4°C° 0.3 mm 6 mps 756 mmHg 84%

    27 November, Monday

    Time Temperature Precipitation Wind Pressure Humidity
    00:00 +4°C° 0.3 mm 6 mps 756 mmHg 83%
    01:00 +4°C° 0 mm 7 mps 755 mmHg 83%
    02:00 +4°C° 0 mm 7 mps 755 mmHg 84%
    03:00 +4°C° 0 mm 7 mps 754 mmHg 84%
    04:00 +5°C° 0.7 mm 7 mps 753 mmHg 85%
    05:00 +5°C° 0.7 mm 8 mps 753 mmHg 86%
    06:00 +6°C° 0.7 mm 8 mps 752 mmHg 87%
    07:00 +6°C° 0.3 mm 7 mps 752 mmHg 85%
    08:00 +7°C° 0.3 mm 6 mps 752 mmHg 84%
    09:00 +7°C° 0.3 mm 5 mps 752 mmHg 82%
    10:00 +7°C° 0.1 mm 5 mps 752 mmHg 79%
    11:00 +7°C° 0.1 mm 5 mps 752 mmHg 76%
    12:00 +7°C° 0.1 mm 5 mps 751 mmHg 74%
    13:00 +6°C° 0.1 mm 5 mps 751 mmHg 75%
    14:00 +6°C° 0.1 mm 5 mps 751 mmHg 75%
    15:00 +6°C° 0.1 mm 5 mps 751 mmHg 76%
    16:00 +5°C° 0.2 mm 5 mps 750 mmHg 78%
    17:00 +5°C° 0.2 mm 4 mps 750 mmHg 79%
    18:00 +5°C° 0.2 mm 4 mps 750 mmHg 81%
    19:00 +5°C° 0.1 mm 4 mps 749 mmHg 82%
    20:00 +5°C° 0.1 mm 5 mps 748 mmHg 83%
    21:00 +5°C° 0.1 mm 5 mps 747 mmHg 84%
    22:00 +5°C° 0.5 mm 5 mps 746 mmHg 85%
    23:00 +4°C° 0.5 mm 6 mps 745 mmHg 86%

    28 November, Tuesday

    Time Temperature Precipitation Wind Pressure Humidity
    00:00 +4°C° 0.5 mm 6 mps 744 mmHg 87%
    01:00 +4°C° 1.1 mm 6 mps 743 mmHg 87%
    02:00 +4°C° 1.1 mm 6 mps 742 mmHg 88%
    03:00 +4°C° 1.1 mm 6 mps 741 mmHg 88%
    04:00 +4°C° 0.4 mm 6 mps 741 mmHg 85%
    05:00 +3°C° 0.4 mm 6 mps 741 mmHg 82%
    06:00 +3°C° 0.4 mm 6 mps 741 mmHg 79%
    07:00 +2°C° 0 mm 6 mps 741 mmHg 78%
    08:00 +2°C° 0 mm 6 mps 741 mmHg 76%
    09:00 +1°C° 0 mm 6 mps 742 mmHg 75%
    10:00 +2°C° 0 mm 7 mps 742 mmHg 72%
    11:00 +2°C° 0 mm 8 mps 742 mmHg 70%
    12:00 +3°C° 0 mm 9 mps 742 mmHg 67%
    13:00 +2°C° 0 mm 8 mps 742 mmHg 67%
    14:00 +2°C° 0 mm 8 mps 742 mmHg 67%
    15:00 +2°C° 0 mm 8 mps 742 mmHg 67%
    16:00 +2°C° 0 mm 8 mps 742 mmHg 68%
    17:00 +2°C° 0 mm 9 mps 742 mmHg 68%
    18:00 +1°C° 0 mm 9 mps 742 mmHg 69%
    19:00 +2°C° 0.4 mm 10 mps 743 mmHg 69%
    20:00 +2°C° 0.4 mm 10 mps 743 mmHg 70%
    21:00 +2°C° 0.4 mm 11 mps 744 mmHg 70%
    22:00 +2°C° 0.3 mm 10 mps 744 mmHg 71%
    23:00 +2°C° 0.3 mm 9 mps 745 mmHg 71%

    29 November, Wednesday

    Time Temperature Precipitation Wind Pressure Humidity
    00:00 +2°C° 0.3 mm 8 mps 745 mmHg 72%
    01:00 +2°C° 0 mm 8 mps 746 mmHg 73%
    02:00 +2°C° 0 mm 8 mps 747 mmHg 73%
    03:00 +2°C° 0 mm 8 mps 747 mmHg 73%
    04:00 +2°C° 0 mm 7 mps 748 mmHg 74%
    05:00 +2°C° 0 mm 7 mps 748 mmHg 75%
    06:00 +2°C° 0 mm 7 mps 748 mmHg 76%
    07:00 0°C° 0 mm 7 mps 749 mmHg 76%
    08:00 +1°C° 0 mm 6 mps 749 mmHg 76%
    09:00 +1°C° 0 mm 6 mps 750 mmHg 76%
    10:00 +2°C° 0 mm 6 mps 750 mmHg 74%
    11:00 +2°C° 0 mm 6 mps 750 mmHg 72%
    12:00 +3°C° 0 mm 7 mps 750 mmHg 69%
    13:00 +2°C° 0 mm 6 mps 750 mmHg 70%
    14:00 +2°C° 0 mm 6 mps 750 mmHg 71%
    15:00 +2°C° 0 mm 5 mps 750 mmHg 71%
    16:00 +1°C° 0 mm 5 mps 751 mmHg 73%
    17:00 +1°C° 0 mm 5 mps 751 mmHg 75%
    18:00 0°C° 0 mm 5 mps 752 mmHg 77%
    19:00 0°C° 0 mm 4 mps 752 mmHg 77%
    20:00 -1°C° 0 mm 4 mps 752 mmHg 77%
    21:00 -1°C° 0 mm 4 mps 753 mmHg 78%
    22:00 -1°C° 0 mm 4 mps 753 mmHg 77%
    23:00 -2°C° 0 mm 4 mps 753 mmHg 77%
    Show more